Location: London
(42.9830°N, 81.2500°W)
Time: 11:26:19
(UTC-04:00)

Amateur Radio Satellites - All Passes

Search period start: 17 April 2014 10:56
Search period end: 18 April 2014 10:56
Location: London, 42.9830°N, 81.2500°W

Satellite Date Start Highest point End Downlink Frequencies (MHz)
Time Altitude Azimuth
HO-68 17 Apr 11:10:52 11:18:04 77° 289° (WNW) 11:25:13 435.675 MHz FM
KITSAT 1 17 Apr 11:22:47 11:29:38 29° 37° (NE) 11:36:26 435.175 FM
PCSat 17 Apr 11:25:59 11:31:19 60° 245° (WSW) 11:36:37 145.825 MHz
RS-15 17 Apr 11:49:42 11:58:27 26° 344° (NNW) 12:07:07 29.354 - 29.394 USB, Beacon 29.352 USB
FUNcube-1 17 Apr 11:55:32 11:59:45 65° 101° (ESE) 12:04:01 145.950 - 145.970 MHz USB
Saudisat 1A 17 Apr 12:08:36 12:12:50 44° 118° (ESE) 12:17:05 436.775 MHz
Oscar 11 17 Apr 12:13:17 12:16:58 27° 292° (WNW) 12:20:38 145.825 FM, Beacon 2401.500 USB
Sapphire 17 Apr 12:25:08 12:29:06 21° 254° (WSW) 12:33:04 437.095 MHz 1200 baud AX-25 AFSK
HO-68 17 Apr 13:00:26 13:04:38 17° 309° (NW) 13:08:50 435.675 MHz FM
AO-27 17 Apr 13:17:34 13:20:50 17° 60° (ENE) 13:24:06 436.795 MHz FM
KITSAT 1 17 Apr 13:17:52 13:26:01 85° 240° (WSW) 13:34:05 435.175 FM
ITAMSAT 1 17 Apr 13:28:18 13:32:04 21° 62° (ENE) 13:35:49 435.822 SSB
FUNcube-1 17 Apr 13:33:49 13:35:41 13° 298° (WNW) 13:37:33 145.950 - 145.970 MHz USB
Oscar 19 17 Apr 13:37:07 13:41:56 43° 69° (ENE) 13:46:47 437.125 CW, 437.150 USB
Oscar 16 17 Apr 13:44:46 13:49:45 54° 71° (ENE) 13:54:47 437.025 USB, Beacon 2401.1428
Saudisat 1A 17 Apr 13:48:53 13:52:37 25° 316° (NW) 13:56:21 436.775 MHz
AO-Echo 17 Apr 13:57:58 14:02:28 30° 67° (ENE) 14:06:53 ?
RS-15 17 Apr 14:06:49 14:15:43 27° 20° (NNE) 14:24:37 29.354 - 29.394 USB, Beacon 29.352 USB
Uribyol 2 17 Apr 14:15:44 14:20:46 56° 71° (ENE) 14:25:49 436.500 FM
Gurwin Techsat 1B 17 Apr 14:35:04 14:39:26 27° 65° (ENE) 14:43:48 435.225 FM
JAS-1B 17 Apr 14:44:06 14:49:17 20° 59° (ENE) 14:53:57 435.800 - 435.900 CW/SSB
AO-27 17 Apr 14:54:37 14:59:48 69° 258° (WSW) 15:04:59 436.795 MHz FM
OPAL 17 Apr 14:58:00 15:00:40 14° 92° (E) 15:03:19 ?
ITAMSAT 1 17 Apr 15:06:05 15:11:09 55° 259° (W) 15:16:15 435.822 SSB
AO-7 17 Apr 15:08:13 15:14:17 23° 51° (NE) 15:20:21 29.400 - 29.500 MHz
KITSAT 1 17 Apr 15:15:19 15:20:13 18° 259° (W) 15:25:07 435.175 FM
Oscar 19 17 Apr 15:17:19 15:21:26 24° 266° (W) 15:25:36 437.125 CW, 437.150 USB
TMSAT-1 17 Apr 15:23:50 15:28:55 50° 71° (ENE) 15:34:02 436.925 FM
Oscar 16 17 Apr 15:25:50 15:29:26 19° 268° (W) 15:33:05 437.025 USB, Beacon 2401.1428
AO-Echo 17 Apr 15:36:15 15:41:06 37° 263° (W) 15:45:53 ?
ISS 17 Apr 15:49:56 15:51:32 13° 131° (SE) 15:53:09 145.800 FM
Uosat F 17 Apr 15:52:51 15:57:25 36° 68° (ENE) 16:01:59 435.120 FM
Uribyol 2 17 Apr 15:57:02 16:00:36 19° 268° (W) 16:04:10 436.500 FM
SO-50 17 Apr 15:58:19 16:01:36 20° 112° (ESE) 16:04:54 436.795 FM
Gurwin Techsat 1B 17 Apr 16:14:09 16:19:10 42° 262° (W) 16:24:13 435.225 FM
RS-15 17 Apr 16:19:52 16:30:45 64° 50° (NE) 16:41:50 29.354 - 29.394 USB, Beacon 29.352 USB
JAS-1B 17 Apr 16:30:56 16:39:19 87° 255° (WSW) 16:46:16 435.800 - 435.900 CW/SSB
OPAL 17 Apr 16:34:52 16:40:06 76° 288° (WNW) 16:45:18 ?
AO-7 17 Apr 16:57:46 17:06:04 89° 251° (WSW) 17:14:24 29.400 - 29.500 MHz
TMSAT-1 17 Apr 17:05:08 17:09:07 21° 268° (W) 17:13:08 436.925 FM
ISS 17 Apr 17:24:30 17:27:51 83° 327° (NNW) 17:31:14 145.800 FM
Uosat F 17 Apr 17:31:58 17:36:15 28° 265° (W) 17:40:33 435.120 FM
SO-50 17 Apr 17:37:30 17:41:50 48° 309° (NW) 17:46:13 436.795 FM
OPAL 17 Apr 18:16:20 18:18:06 12° 306° (NW) 18:19:52 ?
JAS-1B 17 Apr 18:25:43 18:30:27 16° 269° (W) 18:34:48 435.800 - 435.900 CW/SSB
Hamsat 17 Apr 18:27:58 18:32:00 48° 73° (ENE) 18:36:05 145.90 MHz
UOSAT-12 17 Apr 18:32:24 18:36:36 39° 116° (ESE) 18:40:55 437.025 FM, 437.400 FM
RS-15 17 Apr 18:32:48 18:42:32 39° 252° (WSW) 18:52:34 29.354 - 29.394 USB, Beacon 29.352 USB
JAS-2 17 Apr 18:46:43 18:51:46 31° 67° (ENE) 18:56:27 435.800 - 435.900 CW/SSB, 435.910 FM
AO-7 17 Apr 18:54:34 18:59:54 18° 270° (W) 19:05:17 29.400 - 29.500 MHz
ISS 17 Apr 19:02:14 19:04:59 23° 346° (NNW) 19:07:45 145.800 FM
STRAND 1 17 Apr 19:10:14 19:14:00 20° 93° (E) 19:17:44 ?
SO-50 17 Apr 19:22:57 19:23:32 10° 331° (NNW) 19:24:07 436.795 FM
SO-67 17 Apr 19:42:03 19:45:29 59° 75° (ENE) 19:48:56 435.3500 MHz FM
HO-68 17 Apr 19:55:28 20:00:09 19° 53° (NE) 20:04:51 435.675 MHz FM
Hamsat 17 Apr 20:05:51 20:08:17 15° 269° (W) 20:10:44 145.90 MHz
UOSAT-12 17 Apr 20:12:50 20:16:51 29° 315° (NW) 20:20:57 437.025 FM, 437.400 FM
JAS-2 17 Apr 20:31:21 20:36:49 37° 262° (W) 20:41:51 435.800 - 435.900 CW/SSB, 435.910 FM
Saudisat 1A 17 Apr 20:34:33 20:38:51 47° 51° (NE) 20:43:04 436.775 MHz
ISS 17 Apr 20:40:04 20:42:34 19° 6° (N) 20:45:05 145.800 FM
STRAND 1 17 Apr 20:48:33 20:53:28 50° 290° (WNW) 20:58:21 ?
Oscar 11 17 Apr 21:33:20 21:36:54 26° 67° (ENE) 21:40:28 145.825 FM, Beacon 2401.500 USB
HO-68 17 Apr 21:39:45 21:46:54 88° 73° (ENE) 21:54:06 435.675 MHz FM
MaSat-1 17 Apr 22:05:56 22:08:05 18° 111° (ESE) 22:10:04 437.345 MHz
Saudisat 1A 17 Apr 22:14:54 22:18:08 20° 248° (WSW) 22:21:19 436.775 MHz
ISS 17 Apr 22:16:42 22:19:57 44° 26° (NNE) 22:23:11 145.800 FM
FUNcube-1 17 Apr 22:53:06 22:57:15 58° 74° (ENE) 23:01:21 145.950 - 145.970 MHz USB
Oscar 11 17 Apr 23:09:13 23:12:59 29° 264° (W) 23:16:48 145.825 FM, Beacon 2401.500 USB
HO-68 17 Apr 23:31:06 23:35:28 17° 271° (W) 23:39:52 435.675 MHz FM
MaSat-1 17 Apr 23:44:39 23:46:28 16° 303° (WNW) 23:48:10 437.345 MHz
ISS 17 Apr 23:53:40 23:56:35 27° 223° (SW) 23:59:29 145.800 FM
PCSat 18 Apr 00:27:56 00:30:57 15° 104° (ESE) 00:33:58 145.825 MHz
SO-50 18 Apr 00:27:59 00:31:59 28° 45° (NE) 00:36:02 436.795 FM
FUNcube-1 18 Apr 00:32:17 00:34:02 12° 270° (W) 00:35:48 145.950 - 145.970 MHz USB
UOSAT-12 18 Apr 01:23:07 01:24:05 11° 29° (NNE) 01:25:03 437.025 FM, 437.400 FM
Sapphire 18 Apr 01:23:35 01:28:40 44° 113° (ESE) 01:33:47 437.095 MHz 1200 baud AX-25 AFSK
Oscar 19 18 Apr 01:49:19 01:51:59 14° 89° (E) 01:54:38 437.125 CW, 437.150 USB
Oscar 16 18 Apr 01:56:37 02:00:06 18° 91° (E) 02:03:34 437.025 USB, Beacon 2401.1428
KITSAT 1 18 Apr 01:59:14 02:00:42 11° 96° (E) 02:02:10 435.175 FM
PCSat 18 Apr 02:08:16 02:13:40 77° 301° (WNW) 02:19:07 145.825 MHz
SO-50 18 Apr 02:08:19 02:12:41 41° 243° (WSW) 02:17:07 436.795 FM
OPAL 18 Apr 02:13:05 02:17:20 28° 63° (ENE) 02:21:38 ?
Uribyol 2 18 Apr 02:28:34 02:32:07 18° 92° (E) 02:35:38 436.500 FM
UOSAT-12 18 Apr 03:00:53 03:05:27 45° 50° (NE) 03:09:57 437.025 FM, 437.400 FM
AO-27 18 Apr 03:06:55 03:11:47 40° 98° (E) 03:16:37 436.795 MHz FM
Sapphire 18 Apr 03:07:27 03:12:14 31° 312° (NW) 03:17:02 437.095 MHz 1200 baud AX-25 AFSK
Oscar 10/S400 18 Apr 03:12:56 03:31:33 30° 132° (SE) 04:30:53 145.825 - 145.975 CW/USB, Beacon 145.810 USB
ITAMSAT 1 18 Apr 03:17:59 03:23:01 49° 100° (E) 03:28:01 435.822 SSB
Oscar 19 18 Apr 03:26:40 03:31:53 74° 286° (WNW) 03:37:03 437.125 CW, 437.150 USB
Oscar 16 18 Apr 03:34:43 03:39:50 59° 288° (WNW) 03:44:55 437.025 USB, Beacon 2401.1428
TMSAT-1 18 Apr 03:39:42 03:43:21 19° 91° (E) 03:46:59 436.925 FM
AO-Echo 18 Apr 03:42:24 03:47:13 69° 102° (ESE) 03:51:54 ?
KITSAT 1 18 Apr 03:46:30 03:54:26 62° 115° (ESE) 04:02:25 435.175 FM
OPAL 18 Apr 03:51:25 03:56:04 38° 260° (W) 04:00:47 ?
PCSat 18 Apr 03:54:45 03:58:01 16° 322° (NW) 04:01:18 145.825 MHz
Uribyol 2 18 Apr 04:06:53 04:11:57 57° 289° (WNW) 04:17:00 436.500 FM
JAS-1B 18 Apr 04:16:25 04:20:22 19° 92° (E) 04:24:21 435.800 - 435.900 CW/SSB
Gurwin Techsat 1B 18 Apr 04:29:03 04:34:23 73° 103° (ESE) 04:39:40 435.225 FM
UOSAT-12 18 Apr 04:41:36 04:45:21 24° 248° (WSW) 04:49:03 437.025 FM, 437.400 FM
AO-27 18 Apr 04:46:49 04:51:07 27° 295° (WNW) 04:55:25 436.795 MHz FM
ITAMSAT 1 18 Apr 04:58:15 05:02:11 23° 297° (WNW) 05:06:07 435.822 SSB
AO-7 18 Apr 04:58:57 05:05:57 29° 95° (E) 05:12:55 29.400 - 29.500 MHz
Oscar 19 18 Apr 05:09:09 05:10:18 11° 304° (NW) 05:11:27 437.125 CW, 437.150 USB
TMSAT-1 18 Apr 05:18:27 05:23:39 58° 288° (WNW) 05:28:49 436.925 FM
AO-Echo 18 Apr 05:22:47 05:25:24 15° 300° (WNW) 05:28:00 ?
Uosat F 18 Apr 05:37:47 05:42:49 84° 104° (ESE) 05:47:49 435.120 FM
KITSAT 1 18 Apr 05:42:53 05:50:17 37° 317° (NW) 05:57:43 435.175 FM
JAS-1B 18 Apr 06:05:58 06:11:32 56° 290° (WNW) 06:17:10 435.800 - 435.900 CW/SSB
Gurwin Techsat 1B 18 Apr 06:10:29 06:13:45 17° 300° (WNW) 06:16:59 435.225 FM
STRAND 1 18 Apr 06:26:53 06:31:26 33° 67° (ENE) 06:35:59 ?
RS-15 18 Apr 06:45:36 06:55:18 35° 106° (ESE) 07:04:42 29.354 - 29.394 USB, Beacon 29.352 USB
AO-7 18 Apr 06:51:03 06:59:15 65° 294° (WNW) 07:07:26 29.400 - 29.500 MHz
Uosat F 18 Apr 07:18:34 07:20:55 13° 302° (WNW) 07:23:16 435.120 FM
JAS-2 18 Apr 07:38:27 07:42:43 23° 95° (E) 07:47:15 435.800 - 435.900 CW/SSB, 435.910 FM
KITSAT 1 18 Apr 07:44:04 07:48:30 15° 344° (NNW) 07:52:56 435.175 FM
Hamsat 18 Apr 07:48:33 07:52:55 90° 104° (ESE) 07:57:17 145.90 MHz
MaSat-1 18 Apr 08:05:29 08:08:23 83° 244° (WSW) 08:11:49 437.345 MHz
STRAND 1 18 Apr 08:06:05 08:10:36 31° 264° (W) 08:15:08 ?
Sapphire 18 Apr 08:29:49 08:30:44 10° 30° (NNE) 08:31:39 437.095 MHz 1200 baud AX-25 AFSK
SO-67 18 Apr 08:38:45 08:42:15 65° 101° (E) 08:45:43 435.3500 MHz FM
AO-7 18 Apr 08:45:52 08:50:29 16° 315° (NW) 08:55:07 29.400 - 29.500 MHz
RS-15 18 Apr 08:55:34 09:06:50 71° 308° (NW) 09:17:49 29.354 - 29.394 USB, Beacon 29.352 USB
HO-68 18 Apr 09:08:39 09:12:30 15° 88° (E) 09:16:20 435.675 MHz FM
PCSat 18 Apr 09:12:52 09:16:46 20° 41° (NE) 09:20:40 145.825 MHz
JAS-2 18 Apr 09:22:57 09:28:01 47° 290° (WNW) 09:33:31 435.800 - 435.900 CW/SSB, 435.910 FM
KITSAT 1 18 Apr 09:43:34 09:48:01 15° 16° (NNE) 09:52:28 435.175 FM
Sapphire 18 Apr 10:10:28 10:15:39 44° 53° (NE) 10:20:48 437.095 MHz 1200 baud AX-25 AFSK
FUNcube-1 18 Apr 10:44:25 10:44:52 10° 89° (E) 10:45:20 145.950 - 145.970 MHz USB
